Date String (YYYY-MM-DD hh:mm:ss) UTC,Instrument flags,absolute air pressure of the measurement (hPa),sample flow rate (lpm),inlet stack bypass flow (lpm),air temperature of the measurement (°C),ambient temperature measured by the external sensor (°C),aerosol sample conditioner tube jacket temperature (°C),OPC LED temperature (°C),internal box temperature (°C),relative humidity of the measurement (%),span deviation,mass concentration of particles derived from Lorenz-Mie calculation of OPC scattering (μg/m³),mass concentration of particles derived from Lorenz-Mie calculation of OPC scattering (μg/m³),mass concentration of particles derived from Lorenz-Mie calculation of OPC scattering (μg/m³)
DateTimeUTC,F1_M11,P_M11,Q1_M11,Q2_M11,T1_M11,T2_M11,T3_M11,T4_M11,T5_M11,U1_M11,ZSPAN_M11,X2_M11,X0_M11,X1_M11
2024-03-22 19:00:00,SystemResetWarning,0829.7,5.00,000.00,021.7,021.2,000.0,030.0,023.5,17.1,0000.0,0004.34,0011.10,0003.43
2024-03-22 19:01:00,SystemResetWarning,0829.7,5.00,000.00,021.7,021.2,000.0,030.0,023.5,17.4,0000.0,0004.36,0011.82,0003.44
2024-03-22 19:02:00,SystemResetWarning,0829.7,5.01,000.00,021.7,021.2,000.0,030.0,023.5,17.1,0000.0,0004.32,0012.51,0003.43
2024-03-22 19:03:00,SystemResetWarning,0829.7,5.01,000.00,021.7,021.2,000.0,030.0,023.5,17.5,0000.0,0004.31,0012.68,0003.44
2024-03-22 19:04:00,SystemResetWarning,0829.7,5.00,000.00,021.7,021.3,000.0,030.0,023.5,16.7,0000.0,0004.33,0013.29,0003.44
2024-03-22 19:05:00,SystemResetWarning,0829.7,5.00,000.00,021.7,021.3,000.0,030.0,023.5,16.6,0000.0,0004.35,0013.55,0003.44
2024-03-22 19:06:00,SystemResetWarning,0829.7,4.99,000.00,021.8,021.3,000.0,030.0,023.5,16.4,0000.0,0004.36,0013.77,0003.43
2024-03-22 19:07:00,SystemResetWarning,0829.7,4.99,000.00,021.8,021.3,000.0,030.1,023.6,16.3,0000.0,0004.35,0014.09,0003.42
2024-03-22 19:08:00,SystemResetWarning,0829.7,5.00,000.00,021.8,021.3,000.0,030.1,023.6,16.3,0000.0,0004.35,0013.82,0003.43
2024-03-22 19:09:00,SystemResetWarning,0829.7,5.00,000.00,021.8,021.3,000.0,030.1,023.6,16.3,0000.0,0004.38,0014.01,0003.43
2024-03-22 19:10:00,SystemResetWarning,0829.7,5.00,000.00,021.8,021.3,000.0,030.1,023.6,16.4,0000.0,0004.36,0013.98,0003.43
2024-03-22 19:11:00,SystemResetWarning,0829.7,5.01,000.00,021.8,021.3,000.0,030.1,023.6,16.2,0000.0,0004.39,0013.82,0003.44
2024-03-22 19:12:00,SystemResetWarning,0829.7,5.00,000.00,021.8,021.3,000.0,030.1,023.6,16.2,0000.0,0004.42,0012.91,0003.46
2024-03-22 19:13:00,SystemResetWarning,0829.7,5.01,000.00,021.9,021.4,000.0,030.1,023.6,16.5,0000.0,0004.49,0011.93,0003.50
2024-03-22 19:14:00,SystemResetWarning,0829.7,4.99,000.00,021.9,021.4,000.0,030.2,023.7,16.7,0000.0,0004.53,0011.70,0003.51
2024-03-22 19:15:00,SystemResetWarning,0829.6,4.99,000.00,021.9,021.4,000.0,030.2,023.7,17.0,0000.0,0004.55,0011.66,0003.50
2024-03-22 19:16:00,SystemResetWarning,0829.6,5.00,000.00,021.9,021.4,000.0,030.2,023.7,16.6,0000.0,0004.55,0011.66,0003.51
2024-03-22 19:17:00,SystemResetWarning,0829.6,5.00,000.00,021.9,021.4,000.0,030.2,023.7,16.5,0000.0,0004.58,0011.99,0003.54
2024-03-22 19:18:00,SystemResetWarning,0829.5,5.01,000.00,021.9,021.4,000.0,030.2,023.7,16.5,0000.0,0004.60,0011.90,0003.57
2024-03-22 19:19:00,SystemResetWarning,0829.5,5.01,000.00,022.0,021.4,000.0,030.2,023.7,16.7,0000.0,0004.61,0011.66,0003.58
2024-03-22 19:20:00,SystemResetWarning,0829.4,4.99,000.00,022.0,021.5,000.0,030.2,023.8,16.8,0000.0,0004.62,0011.77,0003.60
2024-03-22 19:21:00,SystemResetWarning,0829.4,5.00,000.00,022.0,021.5,000.0,030.3,023.8,16.5,0000.0,0004.65,0012.62,0003.61
2024-03-22 19:22:00,SystemResetWarning,0829.4,4.99,000.00,022.0,021.5,000.0,030.3,023.8,16.4,0000.0,0004.64,0012.97,0003.63
2024-03-22 19:23:00,SystemResetWarning,0829.3,5.00,000.00,022.0,021.5,000.0,030.3,023.8,16.7,0000.0,0004.61,0012.81,0003.64
2024-03-22 19:24:00,SystemResetWarning,0829.4,5.02,000.00,022.0,021.5,000.0,030.3,023.8,16.4,0000.0,0004.59,0012.94,0003.64
2024-03-22 19:25:00,SystemResetWarning,0829.3,5.01,000.00,022.0,021.5,000.0,030.3,023.8,16.8,0000.0,0004.59,0013.66,0003.66
2024-03-22 19:26:00,SystemResetWarning,0829.3,4.99,000.00,022.1,021.5,000.0,030.3,023.8,16.9,0000.0,0004.60,0013.17,0003.69
2024-03-22 19:27:00,SystemResetWarning,0829.3,4.99,000.00,022.1,021.5,000.0,030.3,023.9,16.4,0000.0,0004.65,0012.97,0003.73
2024-03-22 19:28:00,SystemResetWarning,0829.4,5.00,000.00,022.1,021.5,000.0,030.4,023.9,16.4,0000.0,0004.64,0012.24,0003.74
2024-03-22 19:29:00,SystemResetWarning,0829.4,5.01,000.00,022.1,021.6,000.0,030.4,023.9,16.3,0000.0,0004.63,0012.47,0003.75
2024-03-22 19:30:00,SystemResetWarning,0829.3,5.01,000.00,022.1,021.6,000.0,030.4,023.9,16.4,0000.0,0004.64,0012.61,0003.76
2024-03-22 19:31:00,SystemResetWarning,0829.3,5.01,000.00,022.1,021.6,000.0,030.4,023.9,16.3,0000.0,0004.70,0012.46,0003.78
2024-03-22 19:32:00,SystemResetWarning,0829.3,5.00,000.00,022.1,021.6,000.0,030.4,023.9,16.2,0000.0,0004.69,0011.75,0003.78
2024-03-22 19:33:00,SystemResetWarning,0829.2,5.00,000.00,022.1,021.6,000.0,030.4,023.9,16.3,0000.0,0004.74,0011.48,0003.80
2024-03-22 19:34:00,SystemResetWarning,0829.2,5.00,000.00,022.2,021.6,000.0,030.4,024.0,16.2,0000.0,0004.75,0011.49,0003.81
2024-03-22 19:35:00,SystemResetWarning,0829.2,5.00,000.00,022.2,021.7,000.0,030.5,024.0,16.4,0000.0,0004.78,0011.86,0003.84
2024-03-22 19:36:00,SystemResetWarning,0829.2,5.00,000.00,022.2,021.7,000.0,030.5,024.0,16.5,0000.0,0004.83,0012.77,0003.85
2024-03-22 19:37:00,SystemResetWarning,0829.2,5.00,000.00,022.2,021.7,000.0,030.5,024.0,16.1,0000.0,0004.85,0012.73,0003.87
2024-03-22 19:38:00,SystemResetWarning,0829.1,5.00,000.00,022.2,021.7,000.0,030.5,024.0,16.1,0000.0,0004.83,0012.89,0003.87
2024-03-22 19:39:00,SystemResetWarning,0829.1,5.00,000.00,022.2,021.7,000.0,030.5,024.0,16.1,0000.0,0004.81,0013.17,0003.87
2024-03-22 19:40:00,SystemResetWarning,0829.1,5.00,000.00,022.2,021.7,000.0,030.5,024.0,16.3,0000.0,0004.81,0013.31,0003.86
2024-03-22 19:41:00,SystemResetWarning,0829.2,5.00,000.00,022.2,021.7,000.0,030.5,024.1,16.4,0000.0,0004.83,0012.79,0003.86
2024-03-22 19:42:00,SystemResetWarning,0829.1,5.00,000.00,022.3,021.8,000.0,030.6,024.1,15.9,0000.0,0004.88,0013.33,0003.87
2024-03-22 19:43:00,SystemResetWarning,0829.1,5.00,000.00,022.3,021.8,000.0,030.6,024.1,16.1,0000.0,0004.94,0013.66,0003.89
2024-03-22 19:44:00,SystemResetWarning,0829.1,5.00,000.00,022.3,021.8,000.0,030.6,024.1,16.3,0000.0,0004.97,0013.54,0003.89
2024-03-22 19:45:00,SystemResetWarning,0829.1,5.00,000.00,022.3,021.8,000.0,030.6,024.1,16.1,0000.0,0005.01,0013.66,0003.89
2024-03-22 19:46:00,SystemResetWarning,0829.1,5.01,000.00,022.3,021.8,000.0,030.6,024.1,16.1,0000.0,0005.04,0013.64,0003.89
2024-03-22 19:47:00,SystemResetWarning,0829.1,5.00,000.00,022.3,021.8,000.0,030.6,024.1,16.4,0000.0,0004.99,0012.14,0003.88
2024-03-22 19:48:00,SystemResetWarning,0829.1,5.01,000.00,022.3,021.8,000.0,030.6,024.1,16.3,0000.0,0004.96,0013.59,0003.86
2024-03-22 19:49:00,SystemResetWarning,0829.0,4.99,000.00,022.4,021.8,000.0,030.6,024.1,16.3,0000.0,0004.92,0013.83,0003.83
2024-03-22 19:50:00,SystemResetWarning,0829.0,5.00,000.00,022.4,021.9,000.0,030.7,024.2,16.3,0000.0,0004.94,0014.33,0003.81
2024-03-22 19:51:00,SystemResetWarning,0829.0,5.00,000.00,022.4,021.9,000.0,030.7,024.2,16.2,0000.0,0004.94,0014.15,0003.82
2024-03-22 19:52:00,SystemResetWarning,0829.0,5.00,000.00,022.4,021.9,000.0,030.7,024.2,16.2,0000.0,0004.95,0014.57,0003.83
2024-03-22 19:53:00,SystemResetWarning,0828.9,5.01,000.00,022.4,021.9,000.0,030.7,024.2,15.9,0000.0,0004.93,0014.02,0003.83
2024-03-22 19:54:00,SystemResetWarning,0829.0,5.01,000.00,022.4,021.9,000.0,030.7,024.2,16.0,0000.0,0004.91,0013.97,0003.83
2024-03-22 19:55:00,SystemResetWarning,0828.9,5.00,000.00,022.4,021.9,000.0,030.7,024.2,16.0,0000.0,0004.91,0014.57,0003.84
2024-03-22 19:56:00,SystemResetWarning,0828.9,4.99,000.00,022.5,021.9,000.0,030.7,024.2,16.0,0000.0,0004.91,0014.73,0003.85
2024-03-22 19:57:00,SystemResetWarning,0828.8,4.99,000.00,022.5,021.9,000.0,030.8,024.3,16.3,0000.0,0004.88,0014.87,0003.85
2024-03-22 19:58:00,SystemResetWarning,0828.8,5.00,000.00,022.5,021.9,000.0,030.8,024.3,15.9,0000.0,0004.91,0014.93,0003.85
2024-03-22 19:59:00,SystemResetWarning,0828.8,5.01,000.00,022.5,021.9,000.0,030.8,024.3,15.9,0000.0,0004.95,0014.08,0003.85
